| time (UTC) | temp C | wind direction | speed KPH | gust KPH | rain 1hr cm | rain 24hr cm | rain mn cm | humidity % | barometer mb |
| 20260507003515 | 16 | 0 | 0.0 | 1.6 | 0.00 | 0.03 | 0.03 | 77 | 1014.6 |
| 20260507003033 | 16 | 0 | 0.0 | 1.6 | 0.00 | 0.03 | 0.03 | 76 | 1014.6 |
| 20260507002514 | 17 | 107 | 0.0 | 1.6 | 0.00 | 0.03 | 0.03 | 75 | 1014.5 |
| 20260507002015 | 17 | 0 | 0.0 | 3.2 | 0.00 | 0.03 | 0.03 | 75 | 1014.5 |
| 20260507001529 | 17 | 0 | 0.0 | 3.2 | 0.00 | 0.03 | 0.03 | 73 | 1014.5 |
| 20260507001014 | 17 | 0 | 0.0 | 3.2 | 0.00 | 0.03 | 0.03 | 73 | 1014.5 |
| 20260507000514 | 17 | 0 | 0.0 | 6.4 | 0.00 | 0.03 | 0.03 | 72 | 1014.4 |
| 20260507000030 | 18 | 0 | 0.0 | 6.4 | 0.00 | 0.03 | 0.03 | 71 | 1014.4 |
| 20260506235515 | 18 | 36 | 1.6 | 9.7 | 0.00 | 0.03 | 0.03 | 70 | 1014.3 |
| 20260506235014 | 18 | 342 | 1.6 | 9.7 | 0.00 | 0.03 | 0.03 | 69 | 1014.3 |
| 20260506234537 | 18 | 63 | 1.6 | 6.4 | 0.00 | 0.03 | 0.03 | 70 | 1014.3 |
| 20260506234016 | 18 | 89 | 1.6 | 4.8 | 0.00 | 0.03 | 0.03 | 71 | 1014.2 |
| 20260506233516 | 18 | 65 | 0.0 | 4.8 | 0.00 | 0.03 | 0.03 | 71 | 1014.2 |
| 20260506233029 | 18 | 0 | 0.0 | 4.8 | 0.00 | 0.03 | 0.03 | 70 | 1014.2 |
| 20260506232515 | 18 | 0 | 0.0 | 6.4 | 0.00 | 0.03 | 0.03 | 69 | 1014.2 |
| 20260506232018 | 18 | 0 | 1.6 | 11.3 | 0.00 | 0.03 | 0.03 | 69 | 1014.2 |
| 20260506231544 | 18 | 61 | 1.6 | 11.3 | 0.00 | 0.03 | 0.03 | 71 | 1014.2 |
| 20260506231015 | 17 | 0 | 0.0 | 6.4 | 0.00 | 0.03 | 0.03 | 71 | 1014.1 |
| 20260506230517 | 17 | 76 | 1.6 | 6.4 | 0.00 | 0.03 | 0.03 | 71 | 1014.0 |
| 20260506230043 | 17 | 73 | 0.0 | 9.7 | 0.00 | 0.03 | 0.03 | 71 | 1014.0 |
| 20260506225520 | 17 | 0 | 1.6 | 9.7 | 0.00 | 0.03 | 0.03 | 71 | 1013.9 |
| 20260506225016 | 17 | 0 | 1.6 | 4.8 | 0.00 | 0.03 | 0.03 | 70 | 1014.0 |
| 20260506224535 | 17 | 53 | 1.6 | 4.8 | 0.00 | 0.03 | 0.03 | 71 | 1014.1 |
| 20260506224016 | 17 | 0 | 0.0 | 6.4 | 0.00 | 0.03 | 0.03 | 70 | 1014.0 |
| 20260506223516 | 18 | 70 | 0.0 | 6.4 | 0.00 | 0.03 | 0.03 | 69 | 1013.9 |
| 20260506223047 | 18 | 39 | 1.6 | 8.0 | 0.00 | 0.03 | 0.03 | 69 | 1013.7 |
| 20260506222516 | 17 | 63 | 1.6 | 8.0 | 0.00 | 0.03 | 0.03 | 69 | 1013.6 |
| 20260506222016 | 17 | 355 | 3.2 | 9.7 | 0.00 | 0.03 | 0.03 | 68 | 1013.7 |
| 20260506221535 | 18 | 32 | 3.2 | 9.7 | 0.00 | 0.03 | 0.03 | 68 | 1013.7 |
| 20260506221019 | 18 | 24 | 3.2 | 8.0 | 0.00 | 0.03 | 0.03 | 68 | 1013.8 |
| 20260506220518 | 18 | 308 | 4.8 | 8.0 | 0.00 | 0.03 | 0.03 | 68 | 1013.8 |
| 20260506220038 | 17 | 288 | 1.6 | 8.0 | 0.00 | 0.03 | 0.03 | 69 | 1013.7 |
| 20260506215518 | 17 | 63 | 1.6 | 9.7 | 0.00 | 0.03 | 0.03 | 69 | 1013.8 |
| 20260506215015 | 17 | 0 | 1.6 | 9.7 | 0.00 | 0.03 | 0.03 | 68 | 1013.9 |
| 20260506214532 | 18 | 355 | 1.6 | 9.7 | 0.00 | 0.03 | 0.03 | 69 | 1014.0 |
| 20260506214016 | 17 | 0 | 1.6 | 9.7 | 0.00 | 0.03 | 0.03 | 70 | 1013.9 |
| 20260506213520 | 18 | 92 | 3.2 | 9.7 | 0.00 | 0.03 | 0.03 | 69 | 1013.9 |
| 20260506213045 | 17 | 338 | 1.6 | 8.0 | 0.00 | 0.03 | 0.03 | 69 | 1014.1 |
| 20260506212516 | 17 | 44 | 1.6 | 11.3 | 0.00 | 0.03 | 0.03 | 71 | 1014.2 |
| 20260506212016 | 17 | 40 | 3.2 | 11.3 | 0.00 | 0.03 | 0.03 | 71 | 1014.0 |
| 20260506211547 | 17 | 65 | 1.6 | 8.0 | 0.00 | 0.03 | 0.03 | 71 | 1014.2 |
| 20260506211016 | 17 | 344 | 1.6 | 12.9 | 0.00 | 0.03 | 0.03 | 69 | 1014.2 |
| 20260506210516 | 17 | 71 | 3.2 | 14.5 | 0.00 | 0.03 | 0.03 | 71 | 1014.2 |
| 20260506210036 | 16 | 74 | 4.8 | 14.5 | 0.00 | 0.03 | 0.03 | 71 | 1014.3 |
| 20260506205516 | 16 | 344 | 3.2 | 8.0 | 0.00 | 0.03 | 0.03 | 72 | 1014.2 |
| 20260506205016 | 16 | 0 | 3.2 | 9.7 | 0.00 | 0.03 | 0.03 | 74 | 1014.2 |
| 20260506204540 | 16 | 0 | 1.6 | 9.7 | 0.00 | 0.03 | 0.03 | 73 | 1014.3 |
| 20260506204015 | 16 | 360 | 1.6 | 11.3 | 0.00 | 0.03 | 0.03 | 73 | 1014.5 |
| 20260506203515 | 16 | 35 | 1.6 | 11.3 | 0.00 | 0.03 | 0.03 | 73 | 1014.2 |
| 20260506203038 | 16 | 315 | 3.2 | 14.5 | 0.00 | 0.03 | 0.03 | 74 | 1014.1 |
| 20260506202518 | 16 | 355 | 4.8 | 14.5 | 0.00 | 0.03 | 0.03 | 73 | 1014.7 |
| 20260506202016 | 16 | 319 | 3.2 | 14.5 | 0.00 | 0.03 | 0.03 | 71 | 1014.6 |
| 20260506201551 | 16 | 67 | 3.2 | 16.1 | 0.00 | 0.03 | 0.03 | 73 | 1014.2 |
| 20260506201016 | 16 | 119 | 4.8 | 16.1 | 0.00 | 0.03 | 0.03 | 73 | 1014.6 |
| 20260506200516 | 16 | 348 | 6.4 | 16.1 | 0.00 | 0.03 | 0.03 | 72 | 1014.6 |
| 20260506200033 | 16 | 338 | 4.8 | 12.9 | 0.00 | 0.03 | 0.03 | 73 | 1014.7 |
| 20260506195517 | 16 | 355 | 3.2 | 12.9 | 0.00 | 0.03 | 0.03 | 73 | 1014.6 |
| 20260506195016 | 16 | 17 | 3.2 | 14.5 | 0.00 | 0.03 | 0.03 | 74 | 1014.8 |
| 20260506194531 | 15 | 345 | 6.4 | 14.5 | 0.00 | 0.03 | 0.03 | 73 | 1015.0 |
| 20260506194016 | 16 | 19 | 4.8 | 12.9 | 0.00 | 0.03 | 0.03 | 72 | 1015.0 |
| 20260506193516 | 15 | 27 | 3.2 | 12.9 | 0.00 | 0.03 | 0.03 | 75 | 1015.0 |
| 20260506193034 | 15 | 53 | 1.6 | 12.9 | 0.00 | 0.03 | 0.03 | 76 | 1015.0 |
| 20260506192516 | 15 | 308 | 3.2 | 12.9 | 0.00 | 0.03 | 0.03 | 76 | 1015.1 |
| 20260506192016 | 15 | 325 | 1.6 | 8.0 | 0.00 | 0.03 | 0.03 | 76 | 1015.2 |
| 20260506191538 | 15 | 286 | 3.2 | 8.0 | 0.00 | 0.03 | 0.03 | 77 | 1015.2 |
| 20260506191020 | 15 | 331 | 3.2 | 8.0 | 0.00 | 0.03 | 0.03 | 77 | 1015.3 |
| 20260506190520 | 14 | 65 | 1.6 | 12.9 | 0.00 | 0.03 | 0.03 | 78 | 1015.3 |
| 20260506190031 | 13 | 334 | 1.6 | 12.9 | 0.00 | 0.03 | 0.03 | 79 | 1015.5 |
| 20260506185516 | 13 | 347 | 3.2 | 12.9 | 0.00 | 0.03 | 0.03 | 78 | 1015.6 |
| 20260506185018 | 13 | 74 | 1.6 | 11.3 | 0.00 | 0.03 | 0.03 | 78 | 1015.4 |
| 20260506184535 | 13 | 5 | 1.6 | 9.7 | 0.00 | 0.03 | 0.03 | 79 | 1015.5 |
| 20260506184017 | 13 | 39 | 3.2 | 9.7 | 0.00 | 0.03 | 0.03 | 79 | 1015.6 |
| 20260506183516 | 13 | 341 | 3.2 | 8.0 | 0.00 | 0.03 | 0.03 | 79 | 1015.5 |
| 20260506183041 | 13 | 336 | 1.6 | 8.0 | 0.00 | 0.03 | 0.03 | 81 | 1015.6 |
| 20260506182515 | 12 | 334 | 1.6 | 8.0 | 0.00 | 0.03 | 0.03 | 81 | 1015.6 |
| 20260506182017 | 12 | 11 | 1.6 | 11.3 | 0.00 | 0.03 | 0.03 | 82 | 1015.9 |
| 20260506181532 | 12 | 319 | 1.6 | 16.1 | 0.00 | 0.03 | 0.03 | 82 | 1015.8 |
| 20260506181017 | 12 | 5 | 3.2 | 19.3 | 0.00 | 0.03 | 0.03 | 83 | 1015.8 |
| 20260506180516 | 12 | 340 | 6.4 | 19.3 | 0.00 | 0.03 | 0.03 | 82 | 1015.6 |
| 20260506180036 | 12 | 309 | 6.4 | 19.3 | 0.00 | 0.03 | 0.03 | 82 | 1015.4 |
| 20260506175519 | 12 | 309 | 6.4 | 19.3 | 0.00 | 0.03 | 0.03 | 83 | 1015.2 |
| 20260506175016 | 12 | 310 | 6.4 | 17.7 | 0.00 | 0.03 | 0.03 | 83 | 1015.3 |
| 20260506174540 | 11 | 329 | 6.4 | 19.3 | 0.00 | 0.03 | 0.03 | 85 | 1015.2 |
| 20260506174016 | 11 | 325 | 6.4 | 19.3 | 0.00 | 0.03 | 0.03 | 84 | 1015.2 |
| 20260506173516 | 11 | 292 | 8.0 | 17.7 | 0.00 | 0.03 | 0.03 | 84 | 1015.2 |
| 20260506173034 | 11 | 338 | 4.8 | 19.3 | 0.00 | 0.03 | 0.03 | 86 | 1015.2 |
| 20260506172516 | 11 | 319 | 8.0 | 19.3 | 0.00 | 0.03 | 0.03 | 84 | 1015.3 |
| 20260506172018 | 11 | 352 | 4.8 | 22.5 | 0.00 | 0.03 | 0.03 | 86 | 1015.3 |
| 20260506171533 | 11 | 352 | 8.0 | 22.5 | 0.00 | 0.03 | 0.03 | 86 | 1015.2 |
| 20260506171019 | 11 | 334 | 4.8 | 19.3 | 0.00 | 0.03 | 0.03 | 87 | 1015.2 |
| 20260506170519 | 11 | 319 | 6.4 | 19.3 | 0.00 | 0.03 | 0.03 | 87 | 1015.2 |
| 20260506170036 | 11 | 302 | 6.4 | 17.7 | 0.00 | 0.03 | 0.03 | 87 | 1015.4 |
| 20260506165515 | 10 | 315 | 6.4 | 17.7 | 0.00 | 0.03 | 0.03 | 87 | 1015.4 |
| 20260506165016 | 10 | 29 | 3.2 | 17.7 | 0.00 | 0.03 | 0.03 | 88 | 1015.4 |
| 20260506164531 | 10 | 290 | 8.0 | 17.7 | 0.00 | 0.03 | 0.03 | 87 | 1015.6 |
| 20260506164021 | 11 | 5 | 1.6 | 12.9 | 0.00 | 0.03 | 0.03 | 88 | 1015.4 |
| 20260506163515 | 10 | 339 | 1.6 | 14.5 | 0.00 | 0.03 | 0.03 | 88 | 1015.4 |
| 20260506163032 | 10 | 333 | 3.2 | 16.1 | 0.00 | 0.03 | 0.03 | 88 | 1015.2 |
| 20260506162518 | 10 | 355 | 3.2 | 16.1 | 0.00 | 0.03 | 0.03 | 87 | 1015.1 |
| 20260506162021 | 10 | 290 | 4.8 | 16.1 | 0.00 | 0.03 | 0.03 | 87 | 1015.0 |
| 20260506161530 | 10 | 296 | 4.8 | 17.7 | 0.00 | 0.03 | 0.03 | 88 | 1015.3 |
| 20260506161018 | 10 | 344 | 4.8 | 17.7 | 0.00 | 0.03 | 0.03 | 88 | 1015.0 |
| 20260506160520 | 10 | 5 | 3.2 | 11.3 | 0.00 | 0.03 | 0.03 | 87 | 1014.9 |
| 20260506160039 | 10 | 339 | 3.2 | 11.3 | 0.00 | 0.03 | 0.03 | 87 | 1015.1 |
| 20260506155520 | 10 | 355 | 3.2 | 11.3 | 0.00 | 0.03 | 0.03 | 87 | 1015.4 |
| 20260506155016 | 11 | 336 | 1.6 | 16.1 | 0.00 | 0.03 | 0.03 | 86 | 1015.3 |
| 20260506154534 | 11 | 55 | 3.2 | 20.9 | 0.00 | 0.03 | 0.03 | 86 | 1015.0 |
| 20260506154016 | 11 | 350 | 3.2 | 22.5 | 0.00 | 0.03 | 0.03 | 86 | 1014.3 |
| 20260506153515 | 11 | 340 | 6.4 | 22.5 | 0.03 | 0.03 | 0.03 | 86 | 1014.3 |
| 20260506153031 | 11 | 80 | 9.7 | 22.5 | 0.03 | 0.03 | 0.03 | 87 | 1013.8 |
| 20260506152515 | 11 | 320 | 9.7 | 22.5 | 0.03 | 0.03 | 0.03 | 89 | 1013.5 |
| 20260506152015 | 10 | 345 | 6.4 | 22.5 | 0.03 | 0.03 | 0.03 | 89 | 1013.7 |
| 20260506151533 | 10 | 325 | 3.2 | 14.5 | 0.03 | 0.03 | 0.03 | 89 | 1014.1 |
| 20260506151015 | 10 | 0 | 1.6 | 14.5 | 0.03 | 0.03 | 0.03 | 89 | 1014.7 |
| 20260506150517 | 10 | 355 | 3.2 | 14.5 | 0.03 | 0.03 | 0.03 | 89 | 1014.7 |
| 20260506150029 | 10 | 360 | 3.2 | 12.9 | 0.03 | 0.03 | 0.03 | 89 | 1014.7 |
| 20260506145515 | 10 | 0 | 3.2 | 12.9 | 0.03 | 0.03 | 0.03 | 89 | 1014.9 |
| 20260506145015 | 10 | 0 | 1.6 | 12.9 | 0.03 | 0.03 | 0.03 | 89 | 1015.0 |
| 20260506144543 | 10 | 335 | 3.2 | 12.9 | 0.03 | 0.03 | 0.03 | 89 | 1014.3 |
| 20260506144018 | 10 | 38 | 1.6 | 12.9 | 0.03 | 0.03 | 0.03 | 89 | 1014.1 |
| 20260506143517 | 10 | 78 | 3.2 | 17.7 | 0.00 | 0.00 | 0.00 | 89 | 1015.0 |
| 20260506143034 | 10 | 319 | 3.2 | 17.7 | 0.00 | 0.00 | 0.00 | 89 | 1015.3 |
| 20260506142520 | 10 | 344 | 4.8 | 17.7 | 0.00 | 0.00 | 0.00 | 88 | 1015.6 |
| 20260506142019 | 10 | 329 | 4.8 | 12.9 | 0.00 | 0.00 | 0.00 | 88 | 1016.2 |
| 20260506141534 | 10 | 322 | 3.2 | 8.0 | 0.00 | 0.00 | 0.00 | 88 | 1016.3 |
| 20260506141019 | 10 | 326 | 1.6 | 6.4 | 0.00 | 0.00 | 0.00 | 88 | 1015.9 |
| 20260506140516 | 10 | 0 | 1.6 | 9.7 | 0.00 | 0.00 | 0.00 | 87 | 1015.4 |
| 20260506140030 | 10 | 317 | 3.2 | 12.9 | 0.00 | 0.00 | 0.00 | 86 | 1015.2 |
| 20260506135516 | 10 | 68 | 3.2 | 14.5 | 0.00 | 0.00 | 0.00 | 85 | 1014.9 |
| 20260506135015 | 10 | 336 | 4.8 | 16.1 | 0.00 | 0.00 | 0.00 | 84 | 1016.1 |
| 20260506134532 | 10 | 339 | 6.4 | 16.1 | 0.00 | 0.00 | 0.00 | 84 | 1016.7 |
| 20260506134017 | 10 | 300 | 6.4 | 16.1 | 0.00 | 0.00 | 0.00 | 84 | 1015.5 |
| 20260506133516 | 10 | 333 | 3.2 | 14.5 | 0.00 | 0.00 | 0.00 | 84 | 1013.9 |
| 20260506133033 | 10 | 19 | 1.6 | 14.5 | 0.00 | 0.00 | 0.00 | 84 | 1014.1 |
| 20260506132516 | 10 | 355 | 3.2 | 17.7 | 0.00 | 0.00 | 0.00 | 83 | 1014.3 |
| 20260506132020 | 10 | 346 | 4.8 | 20.9 | 0.00 | 0.00 | 0.00 | 83 | 1014.3 |
| 20260506131534 | 10 | 349 | 6.4 | 24.1 | 0.00 | 0.00 | 0.00 | 83 | 1014.9 |
| 20260506131016 | 10 | 317 | 12.9 | 24.1 | 0.00 | 0.00 | 0.00 | 82 | 1015.5 |
| 20260506130520 | 10 | 291 | 8.0 | 19.3 | 0.00 | 0.00 | 0.00 | 82 | 1015.4 |
| 20260506130036 | 10 | 346 | 4.8 | 17.7 | 0.00 | 0.00 | 0.00 | 83 | 1014.7 |
| 20260506125516 | 10 | 313 | 4.8 | 17.7 | 0.00 | 0.00 | 0.00 | 82 | 1014.3 |
| 20260506125015 | 10 | 351 | 4.8 | 17.7 | 0.00 | 0.00 | 0.00 | 82 | 1014.2 |
| 20260506124532 | 10 | 313 | 3.2 | 16.1 | 0.00 | 0.00 | 0.00 | 82 | 1013.7 |
| 20260506124015 | 10 | 49 | 3.2 | 16.1 | 0.00 | 0.00 | 0.00 | 82 | 1013.6 |
| 20260506123516 | 10 | 329 | 4.8 | 19.3 | 0.00 | 0.00 | 0.00 | 82 | 1013.3 |
| 20260506123033 | 10 | 350 | 4.8 | 19.3 | 0.00 | 0.00 | 0.00 | 82 | 1013.3 |
| 20260506122516 | 10 | 340 | 4.8 | 19.3 | 0.00 | 0.00 | 0.00 | 82 | 1013.3 |
| 20260506122018 | 10 | 360 | 3.2 | 17.7 | 0.00 | 0.00 | 0.00 | 82 | 1013.3 |
| 20260506121533 | 10 | 302 | 4.8 | 22.5 | 0.00 | 0.00 | 0.00 | 82 | 1013.1 |
| 20260506121016 | 10 | 5 | 4.8 | 22.5 | 0.00 | 0.00 | 0.00 | 82 | 1013.0 |
| 20260506120517 | 10 | 47 | 8.0 | 20.9 | 0.00 | 0.00 | 0.00 | 82 | 1013.0 |
| 20260506120040 | 11 | 323 | 6.4 | 19.3 | 0.00 | 0.00 | 0.00 | 82 | 1012.9 |
| 20260506115515 | 11 | 324 | 3.2 | 16.1 | 0.00 | 0.00 | 0.00 | 82 | 1013.0 |
| 20260506115015 | 11 | 317 | 4.8 | 16.1 | 0.00 | 0.00 | 0.00 | 82 | 1012.9 |
| 20260506114533 | 11 | 343 | 6.4 | 20.9 | 0.00 | 0.00 | 0.00 | 82 | 1012.9 |
| 20260506114015 | 11 | 309 | 6.4 | 20.9 | 0.00 | 0.00 | 0.00 | 82 | 1013.0 |
| 20260506113516 | 11 | 355 | 8.0 | 20.9 | 0.00 | 0.00 | 0.00 | 81 | 1013.1 |
| 20260506113034 | 11 | 343 | 3.2 | 12.9 | 0.00 | 0.00 | 0.00 | 81 | 1013.0 |
| 20260506112517 | 11 | 342 | 1.6 | 17.7 | 0.00 | 0.00 | 0.00 | 81 | 1012.9 |
| 20260506112018 | 11 | 29 | 4.8 | 17.7 | 0.00 | 0.00 | 0.00 | 81 | 1012.9 |
| 20260506111531 | 11 | 24 | 8.0 | 17.7 | 0.00 | 0.00 | 0.00 | 81 | 1012.9 |
| 20260506111018 | 11 | 328 | 6.4 | 19.3 | 0.00 | 0.00 | 0.00 | 81 | 1012.9 |
| 20260506110515 | 11 | 59 | 6.4 | 19.3 | 0.00 | 0.00 | 0.00 | 81 | 1012.9 |
| 20260506110033 | 12 | 326 | 8.0 | 19.3 | 0.00 | 0.00 | 0.00 | 81 | 1012.7 |
| 20260506105515 | 12 | 355 | 6.4 | 17.7 | 0.00 | 0.00 | 0.00 | 80 | 1012.5 |
| 20260506105016 | 12 | 355 | 3.2 | 14.5 | 0.00 | 0.00 | 0.00 | 81 | 1012.4 |
| 20260506104533 | 12 | 323 | 1.6 | 17.7 | 0.00 | 0.00 | 0.00 | 81 | 1012.2 |
| 20260506104015 | 12 | 319 | 4.8 | 17.7 | 0.00 | 0.00 | 0.00 | 81 | 1012.3 |
| 20260506103516 | 12 | 345 | 4.8 | 17.7 | 0.00 | 0.00 | 0.00 | 81 | 1012.1 |
| 20260506103040 | 12 | 302 | 4.8 | 17.7 | 0.00 | 0.00 | 0.00 | 81 | 1011.9 |
| 20260506102516 | 12 | 333 | 4.8 | 16.1 | 0.00 | 0.00 | 0.00 | 81 | 1012.0 |
| 20260506102016 | 12 | 325 | 4.8 | 12.9 | 0.00 | 0.00 | 0.00 | 82 | 1012.0 |
| 20260506101532 | 12 | 338 | 3.2 | 12.9 | 0.00 | 0.00 | 0.00 | 82 | 1011.7 |
| 20260506101017 | 12 | 309 | 4.8 | 12.9 | 0.00 | 0.00 | 0.00 | 82 | 1011.6 |
| 20260506100515 | 12 | 349 | 3.2 | 12.9 | 0.00 | 0.00 | 0.00 | 82 | 1011.6 |
| 20260506100031 | 12 | 19 | 3.2 | 12.9 | 0.00 | 0.00 | 0.00 | 82 | 1011.6 |
| 20260506095515 | 12 | 342 | 1.6 | 12.9 | 0.00 | 0.00 | 0.00 | 82 | 1011.6 |
| 20260506095015 | 12 | 314 | 4.8 | 12.9 | 0.00 | 0.00 | 0.00 | 82 | 1011.5 |
| 20260506094533 | 12 | 5 | 1.6 | 12.9 | 0.00 | 0.00 | 0.00 | 82 | 1011.5 |
| 20260506094016 | 12 | 337 | 4.8 | 12.9 | 0.00 | 0.00 | 0.00 | 82 | 1011.3 |
| 20260506093518 | 12 | 310 | 4.8 | 12.9 | 0.00 | 0.00 | 0.00 | 82 | 1011.3 |
| 20260506093030 | 12 | 328 | 1.6 | 12.9 | 0.00 | 0.00 | 0.00 | 83 | 1011.2 |
| 20260506092516 | 12 | 315 | 3.2 | 14.5 | 0.00 | 0.00 | 0.00 | 83 | 1011.1 |
| 20260506092016 | 12 | 348 | 4.8 | 14.5 | 0.00 | 0.00 | 0.00 | 82 | 1011.0 |
| 20260506091534 | 12 | 330 | 3.2 | 12.9 | 0.00 | 0.00 | 0.00 | 83 | 1011.1 |
| 20260506091018 | 12 | 51 | 3.2 | 14.5 | 0.00 | 0.00 | 0.00 | 83 | 1011.0 |
| 20260506090515 | 12 | 341 | 3.2 | 14.5 | 0.00 | 0.00 | 0.00 | 83 | 1011.0 |
| 20260506090043 | 12 | 298 | 4.8 | 14.5 | 0.00 | 0.00 | 0.00 | 83 | 1011.0 |
| 20260506085517 | 12 | 313 | 3.2 | 14.5 | 0.00 | 0.00 | 0.00 | 83 | 1011.1 |
| 20260506085015 | 12 | 325 | 4.8 | 14.5 | 0.00 | 0.00 | 0.00 | 83 | 1011.2 |
| 20260506084534 | 12 | 0 | 3.2 | 14.5 | 0.00 | 0.00 | 0.00 | 83 | 1011.1 |
| 20260506084015 | 12 | 333 | 3.2 | 12.9 | 0.00 | 0.00 | 0.00 | 83 | 1011.2 |
| 20260506083516 | 12 | 321 | 1.6 | 12.9 | 0.00 | 0.00 | 0.00 | 83 | 1011.1 |
| 20260506083032 | 13 | 19 | 3.2 | 9.7 | 0.00 | 0.00 | 0.00 | 83 | 1011.1 |
| 20260506082514 | 13 | 321 | 3.2 | 14.5 | 0.00 | 0.00 | 0.00 | 83 | 1011.1 |
| 20260506082017 | 13 | 321 | 4.8 | 14.5 | 0.00 | 0.00 | 0.00 | 82 | 1011.1 |
| 20260506081537 | 13 | 321 | 3.2 | 11.3 | 0.00 | 0.00 | 0.00 | 82 | 1011.0 |
| 20260506081015 | 13 | 333 | 3.2 | 8.0 | 0.00 | 0.00 | 0.00 | 82 | 1011.1 |
| 20260506080516 | 13 | 332 | 3.2 | 9.7 | 0.00 | 0.00 | 0.00 | 82 | 1011.0 |
| 20260506073515 | 13 | 355 | 4.8 | 14.5 | 0.00 | 0.00 | 0.00 | 83 | 1011.0 |
| 20260506073031 | 13 | 360 | 3.2 | 12.9 | 0.00 | 0.00 | 0.00 | 84 | 1010.8 |
| 20260506072516 | 13 | 338 | 4.8 | 9.7 | 0.00 | 0.00 | 0.00 | 84 | 1010.8 |
| 20260506072015 | 13 | 327 | 3.2 | 8.0 | 0.00 | 0.00 | 0.00 | 84 | 1010.9 |
| 20260506071530 | 13 | 360 | 3.2 | 12.9 | 0.00 | 0.00 | 0.00 | 84 | 1010.9 |
| 20260506071015 | 13 | 310 | 3.2 | 12.9 | 0.00 | 0.00 | 0.00 | 84 | 1010.8 |
| 20260506070515 | 13 | 336 | 4.8 | 12.9 | 0.00 | 0.00 | 0.00 | 84 | 1011.0 |
| 20260506062515 | 13 | 339 | 0.0 | 6.4 | 0.00 | 0.00 | 0.00 | 82 | 1010.1 |
| 20260506062016 | 13 | 16 | 1.6 | 6.4 | 0.00 | 0.00 | 0.00 | 82 | 1010.2 |
| 20260506061546 | 13 | 0 | 1.6 | 6.4 | 0.00 | 0.00 | 0.00 | 82 | 1010.1 |
| 20260506061015 | 13 | 0 | 0.0 | 6.4 | 0.00 | 0.00 | 0.00 | 81 | 1010.1 |
| 20260506060519 | 13 | 355 | 1.6 | 6.4 | 0.00 | 0.00 | 0.00 | 81 | 1010.1 |
| 20260506051016 | 15 | 325 | 3.2 | 14.5 | 0.00 | 0.00 | 0.00 | 78 | 1010.6 |
| 20260506050529 | 15 | 345 | 3.2 | 12.9 | 0.00 | 0.00 | 0.00 | 78 | 1010.6 |
| 20260506045016 | 15 | 347 | 1.6 | 12.9 | 0.00 | 0.00 | 0.00 | 77 | 1010.5 |
| 20260506044539 | 16 | 360 | 3.2 | 12.9 | 0.00 | 0.00 | 0.00 | 77 | 1010.6 |
| 20260506044015 | 16 | 342 | 1.6 | 14.5 | 0.00 | 0.00 | 0.00 | 76 | 1010.5 |
| 20260506043515 | 16 | 5 | 3.2 | 14.5 | 0.00 | 0.00 | 0.00 | 77 | 1010.4 |
| 20260506043039 | 16 | 337 | 3.2 | 11.3 | 0.00 | 0.00 | 0.00 | 77 | 1010.4 |
| 20260506042515 | 16 | 348 | 3.2 | 12.9 | 0.00 | 0.00 | 0.00 | 77 | 1010.5 |
| 20260506042015 | 16 | 325 | 1.6 | 12.9 | 0.00 | 0.00 | 0.00 | 76 | 1010.4 |
| 20260506041535 | 16 | 5 | 1.6 | 16.1 | 0.00 | 0.00 | 0.00 | 75 | 1010.3 |
| 20260506041014 | 17 | 102 | 4.8 | 16.1 | 0.00 | 0.00 | 0.00 | 75 | 1010.4 |
| 20260506040515 | 17 | 126 | 3.2 | 11.3 | 0.00 | 0.00 | 0.00 | 75 | 1010.2 |
| 20260506040033 | 17 | 11 | 1.6 | 9.7 | 0.00 | 0.00 | 0.00 | 75 | 1010.1 |
| 20260506035518 | 17 | 76 | 1.6 | 9.7 | 0.00 | 0.00 | 0.00 | 74 | 1010.2 |
| 20260506035017 | 17 | 28 | 1.6 | 12.9 | 0.00 | 0.00 | 0.00 | 74 | 1010.1 |
| 20260506034530 | 17 | 314 | 3.2 | 12.9 | 0.00 | 0.00 | 0.00 | 73 | 1010.0 |
| 20260506034016 | 17 | 0 | 1.6 | 14.5 | 0.00 | 0.00 | 0.00 | 73 | 1010.1 |
| 20260506033515 | 17 | 341 | 4.8 | 14.5 | 0.00 | 0.00 | 0.00 | 73 | 1010.2 |
| 20260506033029 | 18 | 111 | 1.6 | 8.0 | 0.00 | 0.00 | 0.00 | 73 | 1010.2 |
| 20260506032515 | 18 | 350 | 4.8 | 14.5 | 0.00 | 0.00 | 0.00 | 73 | 1010.1 |
| 20260506032016 | 18 | 332 | 3.2 | 14.5 | 0.00 | 0.00 | 0.00 | 73 | 1010.1 |
| 20260506031544 | 18 | 346 | 4.8 | 14.5 | 0.00 | 0.00 | 0.00 | 73 | 1009.9 |
| 20260506031015 | 18 | 343 | 3.2 | 9.7 | 0.00 | 0.00 | 0.00 | 73 | 1009.7 |
| 20260506030515 | 18 | 0 | 1.6 | 12.9 | 0.00 | 0.00 | 0.00 | 73 | 1009.7 |
| 20260506030032 | 18 | 11 | 3.2 | 12.9 | 0.00 | 0.00 | 0.00 | 72 | 1009.4 |
| 20260506025519 | 18 | 324 | 0.0 | 8.0 | 0.00 | 0.00 | 0.00 | 72 | 1009.1 |
| 20260506025015 | 18 | 345 | 1.6 | 8.0 | 0.00 | 0.00 | 0.00 | 71 | 1009.0 |
| 20260506024541 | 18 | 0 | 1.6 | 6.4 | 0.00 | 0.00 | 0.00 | 71 | 1009.0 |
| 20260506024015 | 18 | 355 | 0.0 | 6.4 | 0.00 | 0.00 | 0.00 | 70 | 1008.9 |
| 20260506023517 | 19 | 19 | 1.6 | 8.0 | 0.00 | 0.00 | 0.00 | 70 | 1008.6 |
| 20260506023030 | 19 | 355 | 3.2 | 8.0 | 0.00 | 0.00 | 0.00 | 69 | 1008.5 |
| 20260506022518 | 19 | 109 | 1.6 | 8.0 | 0.00 | 0.00 | 0.00 | 69 | 1008.6 |
| 20260506022015 | 19 | 0 | 0.0 | 9.7 | 0.00 | 0.00 | 0.00 | 69 | 1008.5 |
| 20260506021533 | 20 | 0 | 1.6 | 9.7 | 0.00 | 0.00 | 0.00 | 68 | 1008.3 |
| 20260506021017 | 20 | 342 | 1.6 | 11.3 | 0.00 | 0.00 | 0.00 | 67 | 1008.1 |
| 20260506020514 | 20 | 40 | 1.6 | 11.3 | 0.00 | 0.00 | 0.00 | 67 | 1008.0 |
| 20260506020032 | 20 | 295 | 3.2 | 11.3 | 0.00 | 0.00 | 0.00 | 67 | 1007.8 |
| 20260506015515 | 20 | 330 | 3.2 | 16.1 | 0.00 | 0.00 | 0.00 | 67 | 1007.7 |
| 20260506015019 | 20 | 274 | 3.2 | 16.1 | 0.00 | 0.00 | 0.00 | 67 | 1007.7 |
| 20260506014532 | 20 | 347 | 3.2 | 16.1 | 0.00 | 0.00 | 0.00 | 67 | 1007.6 |
| 20260506014017 | 21 | 336 | 3.2 | 14.5 | 0.00 | 0.00 | 0.00 | 67 | 1007.6 |
| 20260506013515 | 21 | 66 | 3.2 | 12.9 | 0.00 | 0.00 | 0.00 | 68 | 1007.3 |
| 20260506013029 | 21 | 21 | 1.6 | 12.9 | 0.00 | 0.00 | 0.00 | 68 | 1007.2 |
| 20260506012515 | 21 | 355 | 1.6 | 9.7 | 0.00 | 0.00 | 0.00 | 67 | 1006.8 |
| 20260506012018 | 22 | 343 | 3.2 | 16.1 | 0.00 | 0.00 | 0.00 | 67 | 1006.7 |
| 20260506011535 | 22 | 59 | 3.2 | 16.1 | 0.00 | 0.00 | 0.00 | 66 | 1006.8 |
| 20260506011015 | 22 | 5 | 3.2 | 12.9 | 0.00 | 0.00 | 0.00 | 65 | 1006.7 |
| 20260506010515 | 22 | 5 | 3.2 | 16.1 | 0.00 | 0.00 | 0.00 | 65 | 1006.5 |
| 20260506010034 | 23 | 5 | 3.2 | 16.1 | 0.00 | 0.00 | 0.00 | 64 | 1006.4 |
| 20260506005513 | 23 | 324 | 3.2 | 12.9 | 0.00 | 0.00 | 0.00 | 63 | 1006.6 |
| 20260506005014 | 23 | 345 | 3.2 | 16.1 | 0.00 | 0.00 | 0.00 | 63 | 1006.5 |
| 20260506004534 | 23 | 49 | 4.8 | 16.1 | 0.00 | 0.00 | 0.00 | 62 | 1006.3 |
| 20260506004015 | 24 | 26 | 3.2 | 12.9 | 0.00 | 0.00 | 0.00 | 62 | 1006.3 |